Weather History for Sevilla, Spain

Change the Weather History Date:

Thursday, October 4, 2012

  Actual Average Record
Temperature  
Mean Temperature 73 °F -  
Max Temperature 87 °F 75 °F 96 °F (2000)
Min Temperature 59 °F 56 °F 55 °F (1996)
Cooling Degree Days 8    
Growing Degree Days 23 (Base 50)    
Moisture  
Dew Point 53 °F    
Average Humidity 54    
Maximum Humidity 88    
Minimum Humidity 25    
Precipitation  
Precipitation 0.00 in - - ()
Sea Level Pressure  
Sea Level Pressure 29.95 in    
Wind  
Wind Speed 3 mph ()    
Max Wind Speed 9 mph    
Max Gust Speed -    
Averages and records for this station are not official NWS values.
T = Trace of Precipitation, MM = Missing Value Source: Averaged Metar Reports

Daily Weather History Graph

Daily Weather History Graph

Search for Another Location

Airport:

Trip Planner

Search our weather history database for the weather conditions in past years. The results will help you decide how hot, cold, wet, or windy it might be!

Date:

Astronomy

Oct. 04, 2012 Rise Set
Actual Time 8:21 AM CEST 8:01 PM CEST
Civil Twilight 7:55 AM CEST 8:27 PM CEST
Nautical Twilight 7:25 AM CEST 8:58 PM CEST
Astronomical Twilight 6:55 AM CEST 9:28 PM CEST
Moon 10:32 PM CEST (10/4) 12:21 PM CEST (10/4)
Length of Visible Light 12h 32m
Length of Day
11h 39m
Waning Gibbous, 84% of the Moon is Illuminated
Oct 4
Waning Gibbous
Oct 8
Last Quarter
Oct 15
New
Oct 22
First Quarter
Oct 29
Full

Hourly Weather History & Observations

Time (CEST) Temp. Dew Point Humidity Pressure Visibility Wind Dir Wind Speed Gust Speed Precip Events Conditions
12:00 AM 69.8 °F 55.4 °F 60% 30.01 in - Calm Calm - N/A   Clear
12:30 AM 68.0 °F 57.2 °F 68% 30.01 in - Calm Calm - N/A   Clear
1:00 AM 66.2 °F 57.2 °F 73% 30.01 in - Calm Calm - N/A   Clear
4:30 AM 62.6 °F 57.2 °F 82% 29.98 in - NNE 2.3 mph - N/A   Clear
5:00 AM 62.6 °F 57.2 °F 82% 29.98 in - NE 2.3 mph - N/A   Clear
5:30 AM 62.6 °F 55.4 °F 77% 29.98 in - ENE 2.3 mph - N/A   Clear
6:00 AM 62.6 °F 55.4 °F 77% 29.98 in - NNE 3.5 mph - N/A   Clear
6:30 AM 62.6 °F 55.4 °F 77% 29.98 in - Variable 2.3 mph - N/A   Clear
7:00 AM 60.8 °F 55.4 °F 82% 29.98 in - NNE 2.3 mph - N/A   Clear
7:30 AM 60.8 °F 55.4 °F 82% 29.98 in - North 4.6 mph - N/A   Clear
8:00 AM 59.0 °F 55.4 °F 88% 29.98 in - NNE 4.6 mph - N/A   Clear
8:30 AM 59.0 °F 55.4 °F 88% 29.98 in - NE 3.5 mph - N/A   Clear
9:00 AM 60.8 °F 55.4 °F 82% 30.01 in - NE 6.9 mph - N/A   Clear
9:30 AM 62.6 °F 55.4 °F 77% 30.01 in - NE 8.1 mph - N/A   Clear
10:00 AM 66.2 °F 55.4 °F 68% 30.01 in - NE 9.2 mph - N/A   Clear
10:30 AM 68.0 °F 55.4 °F 64% 30.01 in - NE 8.1 mph - N/A   Clear
11:00 AM 71.6 °F 53.6 °F 53% 30.01 in - NE 6.9 mph - N/A   Clear
11:30 AM 71.6 °F 53.6 °F 53% 30.01 in - NE 6.9 mph - N/A   Clear
12:00 PM 75.2 °F 51.8 °F 44% 30.01 in - ENE 6.9 mph - N/A   Clear
12:30 PM 77.0 °F 53.6 °F 44% 29.98 in - ENE 8.1 mph - N/A   Clear
1:00 PM 78.8 °F 53.6 °F 42% 29.98 in - ENE 9.2 mph - N/A   Clear
1:30 PM 78.8 °F 53.6 °F 42% 29.98 in - NE 8.1 mph - N/A   Clear
2:00 PM 82.4 °F 51.8 °F 35% 29.95 in - NE 8.1 mph - N/A   Clear
2:30 PM 82.4 °F 51.8 °F 35% 29.95 in - NE 6.9 mph - N/A   Clear
3:00 PM 84.2 °F 50.0 °F 30% 29.92 in - ENE 5.8 mph - N/A   Clear
4:00 PM 84.2 °F 44.6 °F 25% 29.92 in - ENE 3.5 mph - N/A   Clear
4:30 PM 86.0 °F 46.4 °F 25% 29.89 in - ENE 2.3 mph - N/A   Clear
5:00 PM 87.8 °F 48.2 °F 25% 29.89 in - North 1.2 mph - N/A   Clear
5:30 PM 86.0 °F 46.4 °F 25% 29.89 in - Variable 2.3 mph - N/A   Clear
6:00 PM 86.0 °F 46.4 °F 25% 29.89 in - North 2.3 mph - N/A   Clear
6:30 PM 86.0 °F 48.2 °F 27% 29.89 in - WNW 3.5 mph - N/A   Clear
7:00 PM 86.0 °F 46.4 °F 25% 29.89 in - Variable 2.3 mph - N/A   Clear
7:30 PM 86.0 °F 48.2 °F 27% 29.89 in - Variable 1.2 mph - N/A   Clear
8:00 PM 82.4 °F 48.2 °F 30% 29.89 in - NW 3.5 mph - N/A   Clear
8:30 PM 78.8 °F 50.0 °F 36% 29.89 in - Variable 2.3 mph - N/A   Clear
9:00 PM 75.2 °F 57.2 °F 53% 29.89 in - Variable 1.2 mph - N/A   Clear
9:30 PM 73.4 °F 55.4 °F 53% 29.89 in - Calm Calm - N/A   Clear
10:00 PM 71.6 °F 59.0 °F 64% 29.92 in - SE 2.3 mph - N/A   Clear
10:30 PM 69.8 °F 59.0 °F 68% 29.92 in - Variable 1.2 mph - N/A   Clear
11:00 PM 73.4 °F 51.8 °F 47% 29.92 in - South 5.8 mph - N/A   Clear
11:30 PM 73.4 °F 53.6 °F 50% 29.95 in - South 6.9 mph - N/A   Clear